Simultaneous Nadir Overpasses (SNOs) Predictions

Prediction of SNOs between NOAA-15 and METOP-C Satellite Orbit:

Table of predicted SNOs for the next 14.0 days since TLE Epoch: 2/27/2021
Index Date (NOAA-15) Time (NOAA-15) Lat,Lon (NOAA-15) SZA (NOAA-15 ) Date (METOP-C) Time (METOP-C) Lat,Lon (METOP-C) SZA (METOP-C ) Distance(km) Time Diff (sec)
1 03/07/2021 16:18:43 -80.98, 152.29 92.50 03/07/2021 16:17:38 -80.99, 152.24 92.53 0.92 65
2 03/07/2021 17:09:18 81.00, -40.60 87.48 03/07/2021 17:08:18 80.98, -40.47 87.46 2.75 60
3 03/07/2021 17:59:45 -80.98, 127.15 92.52 03/07/2021 17:58:59 -80.99, 127.12 92.53 1.86 46
4 03/07/2021 18:50:20 80.99, -65.75 87.46 03/07/2021 18:49:39 80.99, -65.59 87.46 2.75 41
5 03/07/2021 19:40:48 -80.99, 101.63 92.56 03/07/2021 19:40:21 -80.99, 101.62 92.58 0.32 27
6 03/07/2021 20:31:22 80.98, -90.89 87.44 03/07/2021 20:31:01 80.99, -91.08 87.41 3.32 21
7 03/07/2021 21:21:50 -80.99, 76.49 92.58 03/07/2021 21:21:42 -81.00, 76.50 92.58 1.35 8
8 03/07/2021 22:12:25 81.00,-116.41 87.40 03/07/2021 22:12:22 81.00,-116.21 87.41 3.39 3
9 03/07/2021 23:02:53 -81.00, 50.97 92.62 03/07/2021 23:03:04 -80.99, 51.00 92.62 0.88 11
10 03/07/2021 23:53:27 80.99,-141.55 87.37 03/07/2021 23:53:44 80.99,-141.70 87.37 2.68 17
11 03/08/2021 00:43:55 -80.99, 25.82 92.64 03/08/2021 00:44:25 -81.00, 25.88 92.62 1.28 30
12 03/08/2021 01:34:29 80.99,-166.70 87.35 03/08/2021 01:35:05 81.00,-166.83 87.36 2.70 36
13 03/08/2021 02:24:58 -81.00, 0.31 92.68 03/08/2021 02:25:47 -80.99, 0.38 92.67 1.69 49
14 03/08/2021 03:15:32 81.00, 167.79 87.31 03/08/2021 03:16:27 80.99, 167.68 87.32 2.12 55
15 03/08/2021 04:06:00 -81.00, -24.84 92.71 03/08/2021 04:07:08 -81.00, -24.74 92.67 1.70 68



Historial Predications of SNOs between NOAA-15 and METOP-C
